When you browse on this site, cookies collect data to enhance your experience and personalize the content and advertising you see.
Visit our Privacy Policy to learn more. By continuing to use the site, you agree to this use of cookies and data.
  • In Germany
  • List of Countries
  • For 7 days
  • Water Temperature
  • Satellite Maps
  • Weather Map
  • Weather Widgets
  • user-avatar
    Login

    Hourly Weather Akka

    Today, 16 December, Sunday

    Time Temperature Precipitation Wind Pressure Humidity
    00:00 +16°C° 0 mm 8 mps 763 mmHg 58%
    01:00 +16°C° 0 mm 8 mps 763 mmHg 59%
    02:00 +16°C° 0 mm 7 mps 763 mmHg 62%
    03:00 +16°C° 0 mm 7 mps 762 mmHg 62%
    04:00 +15°C° 0 mm 7 mps 762 mmHg 62%
    05:00 +15°C° 0 mm 7 mps 762 mmHg 62%
    06:00 +15°C° 0 mm 7 mps 762 mmHg 62%
    07:00 +16°C° 0 mm 7 mps 762 mmHg 62%
    08:00 +16°C° 0 mm 6 mps 762 mmHg 64%
    09:00 +18°C° 0 mm 7 mps 762 mmHg 60%
    10:00 +20°C° 0 mm 7 mps 762 mmHg 56%
    11:00 +21°C° 0 mm 7 mps 762 mmHg 52%
    12:00 +22°C° 0 mm 7 mps 762 mmHg 50%
    13:00 +22°C° 0 mm 6 mps 761 mmHg 49%
    14:00 +23°C° 0 mm 6 mps 761 mmHg 49%
    15:00 +22°C° 0.1 mm 5 mps 761 mmHg 52%
    16:00 +21°C° 0.1 mm 4 mps 761 mmHg 56%
    17:00 +20°C° 0.1 mm 4 mps 761 mmHg 59%
    18:00 +19°C° 0 mm 4 mps 761 mmHg 61%
    19:00 +19°C° 0 mm 3 mps 761 mmHg 62%
    20:00 +18°C° 0 mm 3 mps 762 mmHg 64%
    21:00 +18°C° 0 mm 3 mps 762 mmHg 65%
    22:00 +18°C° 0 mm 3 mps 762 mmHg 66%
    23:00 +17°C° 0 mm 3 mps 762 mmHg 68%

    Tomorrow, 17 December, Monday

    Time Temperature Precipitation Wind Pressure Humidity
    00:00 +17°C° 0 mm 3 mps 762 mmHg 68%
    01:00 +17°C° 0 mm 3 mps 762 mmHg 69%
    02:00 +16°C° 0 mm 3 mps 761 mmHg 70%
    03:00 +16°C° 0 mm 3 mps 761 mmHg 71%
    04:00 +16°C° 0 mm 3 mps 761 mmHg 71%
    05:00 +16°C° 0 mm 3 mps 761 mmHg 72%
    06:00 +16°C° 0 mm 3 mps 761 mmHg 70%
    07:00 +17°C° 0 mm 4 mps 762 mmHg 67%
    08:00 +17°C° 0 mm 4 mps 762 mmHg 65%
    09:00 +17°C° 0.4 mm 5 mps 762 mmHg 61%
    10:00 +19°C° 0.4 mm 6 mps 762 mmHg 57%
    11:00 +21°C° 0.4 mm 7 mps 762 mmHg 53%
    12:00 +20°C° 1 mm 7 mps 762 mmHg 56%
    13:00 +20°C° 1 mm 7 mps 761 mmHg 59%
    14:00 +20°C° 1 mm 7 mps 761 mmHg 62%
    15:00 +18°C° 1 mm 7 mps 761 mmHg 66%
    16:00 +17°C° 1 mm 6 mps 762 mmHg 71%
    17:00 +16°C° 1 mm 6 mps 762 mmHg 75%
    18:00 +16°C° 1 mm 6 mps 762 mmHg 75%
    19:00 +16°C° 1 mm 5 mps 762 mmHg 75%
    20:00 +15°C° 1 mm 5 mps 763 mmHg 76%
    21:00 +15°C° 0.5 mm 5 mps 763 mmHg 74%
    22:00 +15°C° 0.5 mm 5 mps 763 mmHg 73%
    23:00 +15°C° 0.5 mm 4 mps 763 mmHg 71%

    Day after tomorrow, 18 December, Tuesday

    Time Temperature Precipitation Wind Pressure Humidity
    00:00 +15°C° 0.3 mm 4 mps 763 mmHg 71%
    01:00 +15°C° 0.3 mm 4 mps 763 mmHg 71%
    02:00 +15°C° 0.3 mm 4 mps 764 mmHg 71%
    03:00 +15°C° 0.3 mm 4 mps 764 mmHg 74%
    04:00 +15°C° 0.3 mm 4 mps 764 mmHg 76%
    05:00 +15°C° 0.3 mm 4 mps 763 mmHg 78%
    06:00 +15°C° 0.3 mm 4 mps 764 mmHg 80%
    07:00 +15°C° 0.3 mm 4 mps 764 mmHg 81%
    08:00 +15°C° 0.3 mm 4 mps 765 mmHg 82%
    09:00 +16°C° 0.3 mm 5 mps 765 mmHg 80%
    10:00 +16°C° 0.3 mm 5 mps 765 mmHg 78%
    11:00 +16°C° 0.3 mm 5 mps 765 mmHg 76%
    12:00 +17°C° 0.3 mm 5 mps 764 mmHg 74%
    13:00 +17°C° 0.3 mm 5 mps 764 mmHg 73%
    14:00 +19°C° 0.3 mm 5 mps 764 mmHg 71%
    15:00 +17°C° 0.3 mm 5 mps 764 mmHg 73%
    16:00 +17°C° 0.3 mm 5 mps 764 mmHg 74%
    17:00 +16°C° 0.3 mm 5 mps 764 mmHg 76%
    18:00 +16°C° 0.3 mm 5 mps 764 mmHg 76%
    19:00 +16°C° 0.3 mm 5 mps 764 mmHg 77%
    20:00 +15°C° 0.3 mm 5 mps 764 mmHg 77%
    21:00 +15°C° 0.1 mm 5 mps 764 mmHg 77%
    22:00 +15°C° 0.1 mm 5 mps 764 mmHg 77%
    23:00 +15°C° 0.1 mm 5 mps 764 mmHg 77%

    19 December, Wednesday

    Time Temperature Precipitation Wind Pressure Humidity
    00:00 +15°C° 0 mm 5 mps 764 mmHg 76%
    01:00 +14°C° 0 mm 5 mps 763 mmHg 76%
    02:00 +14°C° 0 mm 6 mps 763 mmHg 76%
    03:00 +14°C° 0.2 mm 6 mps 763 mmHg 75%
    04:00 +14°C° 0.2 mm 6 mps 762 mmHg 74%
    05:00 +14°C° 0.2 mm 6 mps 762 mmHg 73%
    06:00 +14°C° 0.9 mm 6 mps 762 mmHg 72%
    07:00 +15°C° 0.9 mm 6 mps 762 mmHg 71%
    08:00 +15°C° 0.9 mm 6 mps 763 mmHg 69%
    09:00 +16°C° 1.1 mm 7 mps 763 mmHg 70%
    10:00 +16°C° 1.1 mm 7 mps 762 mmHg 70%
    11:00 +17°C° 1.1 mm 7 mps 762 mmHg 70%
    12:00 +17°C° 0.9 mm 8 mps 762 mmHg 68%
    13:00 +18°C° 0.9 mm 8 mps 762 mmHg 66%
    14:00 +18°C° 0.9 mm 8 mps 761 mmHg 64%
    15:00 +17°C° 1.3 mm 8 mps 761 mmHg 70%
    16:00 +16°C° 1.3 mm 7 mps 761 mmHg 75%
    17:00 +15°C° 1.3 mm 7 mps 762 mmHg 80%
    18:00 +15°C° 1.4 mm 6 mps 762 mmHg 81%
    19:00 +15°C° 1.4 mm 6 mps 762 mmHg 83%
    20:00 +15°C° 1.4 mm 6 mps 762 mmHg 84%
    21:00 +14°C° 1.2 mm 5 mps 762 mmHg 85%
    22:00 +14°C° 1.2 mm 5 mps 762 mmHg 85%
    23:00 +14°C° 1.2 mm 5 mps 762 mmHg 86%

    20 December, Thursday

    Time Temperature Precipitation Wind Pressure Humidity
    00:00 +14°C° 1.1 mm 5 mps 762 mmHg 87%
    01:00 +14°C° 1.1 mm 5 mps 762 mmHg 87%
    02:00 +14°C° 1.1 mm 5 mps 762 mmHg 87%
    03:00 +14°C° 1.2 mm 5 mps 762 mmHg 87%
    04:00 +14°C° 1.2 mm 5 mps 762 mmHg 87%
    05:00 +14°C° 1.2 mm 5 mps 762 mmHg 87%
    06:00 +14°C° 0.8 mm 4 mps 763 mmHg 87%
    07:00 +15°C° 0.8 mm 4 mps 763 mmHg 86%
    08:00 +15°C° 0.8 mm 4 mps 763 mmHg 85%
    09:00 +17°C° 0.5 mm 4 mps 764 mmHg 82%
    10:00 +17°C° 0.5 mm 3 mps 764 mmHg 78%
    11:00 +18°C° 0.5 mm 3 mps 764 mmHg 75%
    12:00 +18°C° 0.3 mm 3 mps 764 mmHg 73%
    13:00 +19°C° 0.3 mm 4 mps 764 mmHg 72%
    14:00 +19°C° 0.3 mm 4 mps 763 mmHg 70%
    15:00 +18°C° 0.1 mm 4 mps 764 mmHg 74%
    16:00 +17°C° 0.1 mm 3 mps 764 mmHg 77%
    17:00 +17°C° 0.1 mm 3 mps 765 mmHg 81%
    18:00 +16°C° 0.1 mm 3 mps 765 mmHg 81%
    19:00 +16°C° 0.1 mm 3 mps 765 mmHg 82%
    20:00 +16°C° 0.1 mm 3 mps 766 mmHg 82%
    21:00 +15°C° 0 mm 2 mps 766 mmHg 82%
    22:00 +15°C° 0 mm 2 mps 766 mmHg 82%
    23:00 +15°C° 0 mm 1 mps 766 mmHg 81%

    21 December, Friday

    Time Temperature Precipitation Wind Pressure Humidity
    00:00 +15°C° 0 mm 1 mps 766 mmHg 81%
    01:00 +14°C° 0 mm 1 mps 766 mmHg 81%
    02:00 +14°C° 0 mm 1 mps 766 mmHg 81%
    03:00 +14°C° 0 mm 1 mps 766 mmHg 81%
    04:00 +14°C° 0 mm 1 mps 766 mmHg 81%
    05:00 +14°C° 0 mm 1 mps 766 mmHg 81%
    06:00 +14°C° 0 mm 1 mps 767 mmHg 79%
    07:00 +15°C° 0 mm 1 mps 767 mmHg 77%
    08:00 +16°C° 0 mm 1 mps 767 mmHg 75%
    09:00 +17°C° 0 mm 2 mps 767 mmHg 71%
    10:00 +18°C° 0 mm 2 mps 767 mmHg 67%
    11:00 +19°C° 0 mm 2 mps 767 mmHg 63%
    12:00 +19°C° 0.1 mm 2 mps 767 mmHg 63%
    13:00 +19°C° 0.1 mm 2 mps 766 mmHg 63%
    14:00 +20°C° 0.1 mm 2 mps 766 mmHg 63%
    15:00 +19°C° 0 mm 2 mps 766 mmHg 68%
    16:00 +18°C° 0 mm 2 mps 766 mmHg 73%
    17:00 +17°C° 0 mm 2 mps 766 mmHg 78%
    18:00 +16°C° 0 mm 1 mps 766 mmHg 78%
    19:00 +16°C° 0 mm 1 mps 766 mmHg 79%
    20:00 +16°C° 0 mm 1 mps 767 mmHg 79%
    21:00 +16°C° 0 mm 1 mps 766 mmHg 79%
    22:00 +15°C° 0 mm 1 mps 766 mmHg 79%
    23:00 +15°C° 0 mm 1 mps 766 mmHg 79%
    Show more